This is the latest recevied weather packets stored in our database for station/object K8JMX-13. If no packets are shown the sender has not sent any weather packets the latest 10 day(s).
| Time | Temp. | Humidity | Pressure | Rain* | Wind** | Luminosity | Snow |
|---|---|---|---|---|---|---|---|
| 1777941912 | 21.11° C | 52% | 1004.2 hPa | 0 mm | - | 0 W/m² | - |
| 1777941609 | 21.11° C | 52% | 1004.3 hPa | 0 mm | - | 1 W/m² | - |
| 1777941306 | 21.11° C | 52% | 1004.3 hPa | 0 mm | - | 1 W/m² | - |
| 1777941002 | 21.11° C | 51% | 1004.3 hPa | 0 mm | - | 2 W/m² | - |
| 1777940698 | 21.11° C | 51% | 1004.2 hPa | 0 mm | - | 4 W/m² | - |
| 1777940396 | 21.67° C | 50% | 1004.3 hPa | 0 mm | - | 6 W/m² | - |
| 1777940093 | 21.67° C | 50% | 1004.2 hPa | 0 mm | - | 8 W/m² | - |
| 1777939790 | 21.67° C | 50% | 1004.3 hPa | 0 mm | - | 10 W/m² | - |
| 1777939489 | 21.67° C | 49% | 1004.2 hPa | 0 mm | - | 14 W/m² | - |
| 1777939185 | 22.22° C | 48% | 1004.1 hPa | 0 mm | - | 19 W/m² | - |
| 1777938882 | 22.22° C | 48% | 1004.2 hPa | 0 mm | - | 24 W/m² | - |
| 1777938579 | 22.78° C | 48% | 1004.3 hPa | 0 mm | - | 31 W/m² | - |
| 1777938276 | 22.78° C | 47% | 1004.3 hPa | 0 mm | - | 38 W/m² | - |
| 1777937972 | 22.78° C | 48% | 1004.5 hPa | 0 mm | - | 46 W/m² | - |
| 1777937668 | 22.78° C | 48% | 1004.4 hPa | 0 mm | - | 55 W/m² | - |
| 1777937365 | 22.78° C | 48% | 1004.3 hPa | 0 mm | - | 69 W/m² | - |
| 1777937062 | 22.22° C | 48% | 1004.3 hPa | 0 mm | - | 96 W/m² | - |
| 1777936759 | 22.22° C | 49% | 1004.4 hPa | 0 mm | - | 61 W/m² | - |
| 1777936455 | 22.22° C | 48% | 1004.4 hPa | 0 mm | - | 73 W/m² | - |
| 1777936152 | 22.22° C | 48% | 1004.3 hPa | 0 mm | - | 80 W/m² | - |
| 1777935849 | 22.22° C | 48% | 1004.5 hPa | 0 mm | - | 70 W/m² | - |
| 1777935548 | 21.67° C | 48% | 1004.6 hPa | 0 mm | - | 93 W/m² | - |
| 1777935244 | 22.22° C | 48% | 1004.7 hPa | 0 mm | - | 54 W/m² | - |
| 1777934942 | 22.22° C | 48% | 1005 hPa | 0 mm | - | 84 W/m² | - |
| 1777934638 | 22.22° C | 48% | 1005.1 hPa | 0 mm | - | 74 W/m² | - |
* Rain latest hour (hover to see other rain measurements)
** Current wind speed in m/s (hover to see current wind gust speed)